Location: ???????
(55.9142°N, 37.8256°E)
Time: 03:12:53
(UTC+00:00)

Cosmos 1666 Rocket - Visible Passes

Search period start: 25 July 2024 00:00
Search period end: 04 August 2024 00:00
Orbit: 601 x 628 km, 82.5° (Epoch: 24 July)

Date Brightness Start Highest point End Pass type
(mag) Time Alt. Az. Time Alt. Az. Time Alt. Az.
25 Jul 6.5 23:22:46 10° E 23:23:39 11° ENE 23:24:32 10° ENE visible
26 Jul 6.2 23:36:30 10° ESE 23:39:15 16° E 23:42:02 10° NE visible
27 Jul 5.6 23:51:21 10° SE 23:54:56 25° E 23:58:34 10° NNE visible
29 Jul 4.9 00:06:37 10° SSE 00:10:42 38° E 00:14:50 10° NNE visible
30 Jul 4.1 00:22:12 10° S 00:26:32 61° E 00:30:57 10° NNE visible
30 Jul 6.1 23:02:42 10° ESE 23:05:19 16° E 23:07:57 10° NE visible
31 Jul 3.6 00:38:01 10° SSW 00:42:27 86° WNW 00:46:57 10° NNE visible
31 Jul 5.6 23:17:28 10° SE 23:20:59 24° E 23:24:31 10° NNE visible
01 Aug 4.9 23:32:41 10° SSE 23:36:43 36° E 23:40:49 10° NNE visible
02 Aug 4.1 23:48:12 10° S 23:52:33 57° E 23:56:56 10° NNE visible
03 Aug 6.1 22:28:54 10° ESE 22:31:21 15° E 22:33:48 10° NE visible
